KK4URH Weather Reports


Display with metric or nautical units.
time (UTC)temp
F
wind
direction
speed
MPH
gust
MPH
rain 1hr
in
rain 24hr
in
rain mn
in
humidity
%
barometer
mb
20260505124539 62 215 1.0 5.0 0.00 0.00 0.00 57 1016.8
20260505123038 60 184 2.0 5.0 0.00 0.00 0.00 57 1016.9
20260505121538 58 182 0.0 2.0 0.00 0.00 0.00 58 1016.9
20260505120038 57 184 0.0 4.0 0.00 0.00 0.00 59 1016.8
20260505114534 56 178 0.0 0.0 0.00 0.00 0.00 60 1016.7
20260505113033 55 163 0.0 0.0 0.00 0.00 0.00 61 1016.6
20260505111536 54 163 0.0 0.0 0.00 0.00 0.00 62 1016.5
20260505101533 53 163 0.0 0.0 0.00 0.00 0.00 63 1015.6
20260505100127 53 163 0.0 0.0 0.00 0.00 0.00 63 1015.5
20260505094553 53 163 0.0 0.0 0.00 0.00 0.00 63 1015.4
20260505093053 53 163 0.0 0.0 0.00 0.00 0.00 63 1015.4
20260505091543 54 163 0.0 0.0 0.00 0.00 0.00 62 1015.3
20260505090033 54 163 0.0 0.0 0.00 0.00 0.00 60 1015.4
20260505084532 55 163 0.0 0.0 0.00 0.00 0.00 60 1015.2
20260505083022 55 163 0.0 0.0 0.00 0.00 0.00 59 1015.3
20260505081512 56 163 0.0 0.0 0.00 0.00 0.00 58 1015.2
20260505080010 56 163 0.0 0.0 0.00 0.00 0.00 57 1015.1
20260505074507 57 163 0.0 0.0 0.00 0.00 0.00 57 1015.0
20260505073005 57 163 0.0 0.0 0.00 0.00 0.00 56 1015.0
20260505071502 58 163 0.0 0.0 0.00 0.00 0.00 55 1014.9
20260505070001 59 163 0.0 0.0 0.00 0.00 0.00 54 1014.9
20260505064556 59 163 0.0 3.0 0.00 0.00 0.00 54 1014.9
20260505063128 60 162 0.0 2.0 0.00 0.00 0.00 53 1014.9
20260505061620 60 138 0.0 3.0 0.00 0.00 0.00 53 1014.9
20260505060100 60 184 0.0 3.0 0.00 0.00 0.00 52 1014.9
20260505054524 61 190 0.0 0.0 0.00 0.00 0.00 52 1015.0
20260505053018 61 186 0.0 6.0 0.00 0.00 0.00 52 1015.1
20260505051530 61 196 0.0 4.0 0.00 0.00 0.00 51 1015.1
20260505041506 63 188 1.0 3.0 0.00 0.00 0.00 50 1015.1
20260505040005 63 148 1.0 3.0 0.00 0.00 0.00 50 1015.2
20260505034502 64 161 1.0 5.0 0.00 0.00 0.00 49 1015.2
20260505033101 64 212 1.0 5.0 0.00 0.00 0.00 49 1015.2
20260505031528 65 196 0.0 6.0 0.00 0.00 0.00 48 1015.2
20260505030030 65 171 2.0 8.0 0.00 0.00 0.00 48 1015.2
20260505024522 66 137 1.0 9.0 0.00 0.00 0.00 47 1015.2
20260505023021 66 182 1.0 7.0 0.00 0.00 0.00 47 1015.1
20260505021518 67 199 2.0 9.0 0.00 0.00 0.00 47 1015.1
20260505020017 67 169 1.0 7.0 0.00 0.00 0.00 45 1014.9
20260505014514 68 186 3.0 8.0 0.00 0.00 0.00 43 1014.7
20260505013013 69 187 1.0 9.0 0.00 0.00 0.00 40 1014.6
20260505011513 69 154 3.0 9.0 0.00 0.00 0.00 34 1014.3
20260505010011 70 162 0.0 6.0 0.00 0.00 0.00 32 1014.0
20260505004509 71 186 1.0 3.0 0.00 0.00 0.00 31 1013.7
20260505003018 71 167 0.0 4.0 0.00 0.00 0.00 30 1013.7
20260505001508 72 169 0.0 5.0 0.00 0.00 0.00 29 1013.6
20260505000009 73 189 0.0 3.0 0.00 0.00 0.00 28 1013.5
20260504234504 74 187 0.0 4.0 0.00 0.00 0.00 27 1013.5
20260504233003 75 169 0.0 2.0 0.00 0.00 0.00 25 1013.2
20260504231502 76 196 1.0 7.0 0.00 0.00 0.00 24 1013.2
20260504230002 77 186 0.0 7.0 0.00 0.00 0.00 24 1013.1
20260504224531 77 134 2.0 8.0 0.00 0.00 0.00 24 1013.0
20260504223030 78 193 1.0 6.0 0.00 0.00 0.00 20 1013.0
20260504221600 78 187 1.0 8.0 0.00 0.00 0.00 20 1013.0
20260504220058 79 215 0.0 5.0 0.00 0.00 0.00 20 1012.9
20260504214557 79 199 1.0 7.0 0.00 0.00 0.00 19 1013.1
20260504213053 79 182 2.0 5.0 0.00 0.00 0.00 19 1013.2
20260504211552 79 246 1.0 5.0 0.00 0.00 0.00 18 1013.2
20260504210105 79 196 0.0 6.0 0.00 0.00 0.00 20 1013.2
20260504204554 79 236 1.0 7.0 0.00 0.00 0.00 19 1013.3
20260504203102 78 230 1.0 6.0 0.00 0.00 0.00 18 1013.3
20260504201543 79 195 2.0 10.0 0.00 0.00 0.00 17 1013.5
20260504200042 78 196 1.0 8.0 0.00 0.00 0.00 19 1013.7
20260504194540 79 215 1.0 7.0 0.00 0.00 0.00 18 1013.8
20260504193014 79 194 1.0 7.0 0.00 0.00 0.00 21 1013.7
20260504191520 79 232 0.0 3.0 0.00 0.00 0.00 19 1014.0
20260504190042 78 169 2.0 9.0 0.00 0.00 0.00 20 1014.1
20260504184535 78 119 2.0 6.0 0.00 0.00 0.00 21 1014.2
20260504183032 78 221 1.0 6.0 0.00 0.00 0.00 23 1014.4
20260504181525 77 207 3.0 8.0 0.00 0.00 0.00 22 1014.7
20260504180022 77 336 1.0 7.0 0.00 0.00 0.00 22 1014.7
20260504174520 76 186 1.0 4.0 0.00 0.00 0.00 24 1014.9
20260504173015 75 285 0.0 6.0 0.00 0.00 0.00 25 1015.2
20260504171513 75 321 1.0 10.0 0.00 0.00 0.00 24 1015.4